Time,TemperatureF,DewpointF,PressureIn,WindDirection,WindDirectionDegrees,WindSpeedMPH,WindSpeedGustMPH,Humidity,HourlyPrecipIn,Conditions,Clouds,dailyrainin,SoftwareType,DateUTC
2013-02-04 00:02:00,42.4,32.0,30.15,NW,308,0.0,0.0,67,0.00,,,0.00,WUHU216WMR968SP,2013-02-04 08:02:00,
2013-02-04 00:07:00,42.4,33.8,30.15,NW,308,0.0,0.0,68,0.00,,,0.00,WUHU216WMR968SP,2013-02-04 08:07:00,
2013-02-04 00:12:00,42.4,33.8,30.15,NW,308,0.0,0.0,68,0.00,,,0.00,WUHU216WMR968SP,2013-02-04 08:12:00,
2013-02-04 00:17:00,42.6,33.8,30.15,NW,308,0.0,0.0,68,0.00,,,0.00,WUHU216WMR968SP,2013-02-04 08:17:00,
2013-02-04 00:22:00,42.4,33.8,30.15,NW,308,0.0,0.0,68,0.00,,,0.00,WUHU216WMR968SP,2013-02-04 08:22:00,
2013-02-04 00:27:00,42.4,33.8,30.15,NW,308,0.0,0.0,68,0.00,,,0.00,WUHU216WMR968SP,2013-02-04 08:27:00,
2013-02-04 00:32:00,42.6,33.8,30.15,NW,308,0.0,0.0,68,0.00,,,0.00,WUHU216WMR968SP,2013-02-04 08:32:00,
2013-02-04 00:37:00,42.6,33.8,30.15,NW,308,0.0,0.0,69,0.00,,,0.00,WUHU216WMR968SP,2013-02-04 08:37:00,
2013-02-04 00:42:00,42.6,33.8,30.15,NW,308,0.0,0.0,69,0.00,,,0.00,WUHU216WMR968SP,2013-02-04 08:42:00,
2013-02-04 00:47:00,42.6,33.8,30.15,NW,308,0.0,0.0,69,0.00,,,0.00,WUHU216WMR968SP,2013-02-04 08:47:00,
2013-02-04 00:52:00,42.4,33.8,30.15,NW,308,0.0,0.0,69,0.00,,,0.00,WUHU216WMR968SP,2013-02-04 08:52:00,
2013-02-04 00:57:00,42.4,33.8,30.15,NW,308,0.0,0.0,69,0.00,,,0.00,WUHU216WMR968SP,2013-02-04 08:57:00,
2013-02-04 01:02:00,42.4,33.8,30.15,NW,308,0.0,0.0,69,0.00,,,0.00,WUHU216WMR968SP,2013-02-04 09:02:00,
2013-02-04 01:07:00,42.4,33.8,30.15,NW,308,0.0,0.0,69,0.00,,,0.00,WUHU216WMR968SP,2013-02-04 09:07:00,
2013-02-04 01:12:00,42.4,33.8,30.15,NW,308,0.0,0.0,69,0.00,,,0.00,WUHU216WMR968SP,2013-02-04 09:12:00,
2013-02-04 01:17:00,42.4,33.8,30.15,NW,308,0.0,0.0,69,0.00,,,0.00,WUHU216WMR968SP,2013-02-04 09:17:00,
2013-02-04 01:22:00,42.4,33.8,30.15,NW,308,0.0,0.0,69,0.00,,,0.00,WUHU216WMR968SP,2013-02-04 09:22:00,
2013-02-04 01:27:00,42.3,33.8,30.15,NW,308,0.0,0.0,69,0.00,,,0.00,WUHU216WMR968SP,2013-02-04 09:27:00,
2013-02-04 01:32:00,42.3,33.8,30.15,NW,308,0.0,0.0,69,0.00,,,0.00,WUHU216WMR968SP,2013-02-04 09:32:00,
2013-02-04 01:37:00,42.3,33.8,30.15,NW,308,0.0,0.0,70,0.00,,,0.00,WUHU216WMR968SP,2013-02-04 09:37:00,
2013-02-04 01:42:00,42.3,33.8,30.15,NW,308,0.0,0.0,70,0.00,,,0.00,WUHU216WMR968SP,2013-02-04 09:42:00,
2013-02-04 01:47:00,42.3,33.8,30.15,NW,308,0.0,0.0,70,0.00,,,0.00,WUHU216WMR968SP,2013-02-04 09:47:00,
2013-02-04 01:52:00,42.3,33.8,30.15,NW,308,0.0,0.0,70,0.00,,,0.00,WUHU216WMR968SP,2013-02-04 09:52:00,
2013-02-04 02:32:00,42.1,33.8,30.15,NW,308,0.0,0.0,72,0.00,,,0.00,WUHU216WMR968SP,2013-02-04 10:32:00,
2013-02-04 02:37:00,42.1,33.8,30.15,NW,308,0.0,0.0,72,0.00,,,0.00,WUHU216WMR968SP,2013-02-04 10:37:00,
2013-02-04 02:42:00,42.1,33.8,30.15,NW,308,0.0,0.0,72,0.00,,,0.00,WUHU216WMR968SP,2013-02-04 10:42:00,
2013-02-04 02:48:00,42.1,33.8,30.15,NW,308,0.0,0.0,72,0.00,,,0.00,WUHU216WMR968SP,2013-02-04 10:48:00,
2013-02-04 02:53:00,42.1,33.8,30.15,NW,308,0.0,0.0,72,0.00,,,0.00,WUHU216WMR968SP,2013-02-04 10:53:00,
2013-02-04 02:58:00,42.1,33.8,30.15,NW,308,0.0,0.0,72,0.00,,,0.00,WUHU216WMR968SP,2013-02-04 10:58:00,
2013-02-04 03:03:00,42.1,33.8,30.15,NW,308,0.0,0.0,72,0.00,,,0.00,WUHU216WMR968SP,2013-02-04 11:03:00,
2013-02-04 03:08:00,42.1,33.8,30.15,NW,308,0.0,0.0,72,0.00,,,0.00,WUHU216WMR968SP,2013-02-04 11:08:00,
2013-02-04 03:13:00,42.1,33.8,30.15,NW,308,0.0,0.0,72,0.00,,,0.00,WUHU216WMR968SP,2013-02-04 11:13:00,
2013-02-04 03:18:00,42.1,35.6,30.15,NW,308,0.0,0.0,73,0.00,,,0.00,WUHU216WMR968SP,2013-02-04 11:18:00,
2013-02-04 03:23:00,42.1,35.6,30.15,NW,308,0.0,0.0,73,0.00,,,0.00,WUHU216WMR968SP,2013-02-04 11:23:00,
2013-02-04 03:28:00,42.1,35.6,30.15,NW,308,0.0,0.0,73,0.00,,,0.00,WUHU216WMR968SP,2013-02-04 11:28:00,
2013-02-04 03:33:00,42.1,35.6,30.15,NW,308,0.0,0.0,73,0.00,,,0.00,WUHU216WMR968SP,2013-02-04 11:33:00,
2013-02-04 03:38:00,42.1,35.6,30.15,NW,308,0.0,0.0,73,0.00,,,0.00,WUHU216WMR968SP,2013-02-04 11:38:00,
2013-02-04 03:43:00,42.1,35.6,30.15,NW,308,0.0,0.0,73,0.00,,,0.00,WUHU216WMR968SP,2013-02-04 11:43:00,
2013-02-04 03:48:00,42.1,35.6,30.12,NW,308,0.0,0.0,73,0.00,,,0.00,WUHU216WMR968SP,2013-02-04 11:48:00,
2013-02-04 03:53:00,42.1,35.6,30.12,NW,308,0.0,0.0,73,0.00,,,0.00,WUHU216WMR968SP,2013-02-04 11:53:00,
2013-02-04 03:58:00,42.1,35.6,30.12,NW,308,0.0,0.0,73,0.00,,,0.00,WUHU216WMR968SP,2013-02-04 11:58:00,
2013-02-04 04:03:00,41.9,35.6,30.12,NW,308,0.0,0.0,73,0.00,,,0.00,WUHU216WMR968SP,2013-02-04 12:03:00,
2013-02-04 04:08:00,41.9,35.6,30.12,NW,308,0.0,0.0,73,0.00,,,0.00,WUHU216WMR968SP,2013-02-04 12:08:00,
2013-02-04 04:13:00,41.7,33.8,30.12,NW,308,0.0,0.0,73,0.00,,,0.00,WUHU216WMR968SP,2013-02-04 12:13:00,
2013-02-04 04:18:00,41.7,33.8,30.12,NW,308,0.0,0.0,73,0.00,,,0.00,WUHU216WMR968SP,2013-02-04 12:18:00,
2013-02-04 04:23:00,41.7,33.8,30.12,NW,308,0.0,0.0,73,0.00,,,0.00,WUHU216WMR968SP,2013-02-04 12:23:00,
2013-02-04 04:28:00,41.7,33.8,30.12,NW,308,0.0,0.0,73,0.00,,,0.00,WUHU216WMR968SP,2013-02-04 12:28:00,
2013-02-04 04:33:00,41.7,33.8,30.12,North,353,0.0,0.0,73,0.00,,,0.00,WUHU216WMR968SP,2013-02-04 12:33:00,
2013-02-04 04:38:00,41.5,33.8,30.12,North,2,0.0,0.0,73,0.00,,,0.00,WUHU216WMR968SP,2013-02-04 12:38:00,
2013-02-04 04:43:00,41.5,33.8,30.12,North,2,0.0,0.0,73,0.00,,,0.00,WUHU216WMR968SP,2013-02-04 12:43:00,
2013-02-04 04:48:00,41.4,33.8,30.09,North,2,0.0,0.0,73,0.00,,,0.00,WUHU216WMR968SP,2013-02-04 12:48:00,
2013-02-04 04:53:00,41.2,33.8,30.09,North,2,0.0,0.0,73,0.00,,,0.00,WUHU216WMR968SP,2013-02-04 12:53:00,
2013-02-04 04:58:00,41.2,33.8,30.09,North,2,0.0,0.0,73,0.00,,,0.00,WUHU216WMR968SP,2013-02-04 12:58:00,
2013-02-04 05:03:00,41.0,33.8,30.12,North,2,0.0,0.0,73,0.00,,,0.00,WUHU216WMR968SP,2013-02-04 13:03:00,
2013-02-04 05:08:00,41.0,32.0,30.12,North,2,0.0,0.0,72,0.00,,,0.00,WUHU216WMR968SP,2013-02-04 13:08:00,
2013-02-04 05:13:00,40.8,32.0,30.12,North,2,0.0,0.0,72,0.00,,,0.00,WUHU216WMR968SP,2013-02-04 13:13:00,
2013-02-04 05:18:00,40.8,32.0,30.12,North,2,0.0,0.0,72,0.00,,,0.00,WUHU216WMR968SP,2013-02-04 13:18:00,
2013-02-04 05:23:00,40.6,32.0,30.12,North,2,0.0,0.0,72,0.00,,,0.00,WUHU216WMR968SP,2013-02-04 13:23:00,
2013-02-04 05:28:00,40.6,32.0,30.12,North,2,0.0,0.0,71,0.00,,,0.00,WUHU216WMR968SP,2013-02-04 13:28:00,
2013-02-04 05:33:00,40.6,32.0,30.12,North,2,0.0,0.0,71,0.00,,,0.00,WUHU216WMR968SP,2013-02-04 13:33:00,
2013-02-04 05:38:00,40.5,32.0,30.12,North,2,0.0,0.0,71,0.00,,,0.00,WUHU216WMR968SP,2013-02-04 13:38:00,
2013-02-04 05:43:00,40.5,32.0,30.12,North,2,0.0,0.0,71,0.00,,,0.00,WUHU216WMR968SP,2013-02-04 13:43:00,
2013-02-04 05:48:00,40.3,32.0,30.09,North,2,0.0,0.0,70,0.00,,,0.00,WUHU216WMR968SP,2013-02-04 13:48:00,
2013-02-04 05:53:00,40.3,32.0,30.09,North,2,0.0,0.0,70,0.00,,,0.00,WUHU216WMR968SP,2013-02-04 13:53:00,
2013-02-04 05:58:00,40.3,32.0,30.09,North,2,0.0,0.0,70,0.00,,,0.00,WUHU216WMR968SP,2013-02-04 13:58:00,
2013-02-04 06:03:00,39.9,31.0,30.09,North,2,0.0,0.0,70,0.00,,,0.00,WUHU216WMR968SP,2013-02-04 14:03:00,
2013-02-04 06:08:00,39.9,31.0,30.09,North,2,0.0,0.0,70,0.00,,,0.00,WUHU216WMR968SP,2013-02-04 14:08:00,
2013-02-04 06:13:00,39.9,31.0,30.09,North,2,0.0,0.0,70,0.00,,,0.00,WUHU216WMR968SP,2013-02-04 14:13:00,
2013-02-04 06:18:00,39.9,31.0,30.09,North,2,0.0,0.0,70,0.00,,,0.00,WUHU216WMR968SP,2013-02-04 14:18:00,
2013-02-04 06:23:00,39.7,30.8,30.09,North,2,0.0,0.0,70,0.00,,,0.00,WUHU216WMR968SP,2013-02-04 14:23:00,
2013-02-04 06:28:00,39.7,30.8,30.09,North,2,0.0,0.0,70,0.00,,,0.00,WUHU216WMR968SP,2013-02-04 14:28:00,
2013-02-04 06:33:00,39.7,30.8,30.09,North,2,0.0,0.0,70,0.00,,,0.00,WUHU216WMR968SP,2013-02-04 14:33:00,
2013-02-04 06:38:00,39.7,30.8,30.09,North,2,0.0,0.0,70,0.00,,,0.00,WUHU216WMR968SP,2013-02-04 14:38:00,
2013-02-04 06:43:00,39.6,30.7,30.09,North,2,0.0,0.0,70,0.00,,,0.00,WUHU216WMR968SP,2013-02-04 14:43:00,
2013-02-04 06:48:00,39.7,30.8,30.09,North,2,0.0,0.0,70,0.00,,,0.00,WUHU216WMR968SP,2013-02-04 14:48:00,
2013-02-04 06:53:00,39.6,30.7,30.09,North,2,0.0,0.0,70,0.00,,,0.00,WUHU216WMR968SP,2013-02-04 14:53:00,
2013-02-04 06:58:00,39.6,30.7,30.09,North,2,0.0,0.0,70,0.00,,,0.00,WUHU216WMR968SP,2013-02-04 14:58:00,
2013-02-04 07:03:00,39.6,30.7,30.09,North,2,0.0,0.0,70,0.00,,,0.00,WUHU216WMR968SP,2013-02-04 15:03:00,
2013-02-04 07:08:00,39.6,31.0,30.09,North,2,0.0,0.0,71,0.00,,,0.00,WUHU216WMR968SP,2013-02-04 15:08:00,
2013-02-04 07:13:00,39.7,31.1,30.09,North,2,0.0,0.0,71,0.00,,,0.00,WUHU216WMR968SP,2013-02-04 15:13:00,
2013-02-04 07:18:00,39.7,31.1,30.09,North,2,0.0,0.0,71,0.00,,,0.00,WUHU216WMR968SP,2013-02-04 15:18:00,
2013-02-04 07:23:00,39.7,31.1,30.09,North,2,0.0,0.0,71,0.00,,,0.00,WUHU216WMR968SP,2013-02-04 15:23:00,
2013-02-04 07:28:00,39.7,30.8,30.09,North,2,0.0,0.0,70,0.00,,,0.00,WUHU216WMR968SP,2013-02-04 15:28:00,
2013-02-04 07:33:00,39.7,31.1,30.09,North,2,0.0,0.0,71,0.00,,,0.00,WUHU216WMR968SP,2013-02-04 15:33:00,
2013-02-04 07:38:00,39.7,30.8,30.09,North,2,0.0,0.0,70,0.00,,,0.00,WUHU216WMR968SP,2013-02-04 15:38:00,
2013-02-04 07:43:00,39.7,30.8,30.09,North,2,0.0,0.0,70,0.00,,,0.00,WUHU216WMR968SP,2013-02-04 15:43:00,
2013-02-04 07:48:00,39.7,30.8,30.09,North,2,0.0,0.0,70,0.00,,,0.00,WUHU216WMR968SP,2013-02-04 15:48:00,
2013-02-04 07:53:00,39.7,30.8,30.09,North,2,0.0,0.0,70,0.00,,,0.00,WUHU216WMR968SP,2013-02-04 15:53:00,
2013-02-04 07:58:00,39.9,31.0,30.09,North,2,0.0,0.0,70,0.00,,,0.00,WUHU216WMR968SP,2013-02-04 15:58:00,
2013-02-04 08:03:00,39.9,31.0,30.09,North,2,0.0,0.0,70,0.00,,,0.00,WUHU216WMR968SP,2013-02-04 16:03:00,
2013-02-04 08:08:00,40.1,32.0,30.09,North,2,0.0,0.0,70,0.00,,,0.00,WUHU216WMR968SP,2013-02-04 16:08:00,
2013-02-04 08:13:00,40.1,32.0,30.09,North,2,0.0,0.0,70,0.00,,,0.00,WUHU216WMR968SP,2013-02-04 16:13:00,
2013-02-04 08:18:00,40.3,32.0,30.09,North,2,0.0,0.0,70,0.00,,,0.00,WUHU216WMR968SP,2013-02-04 16:18:00,
2013-02-04 08:23:00,40.5,32.0,30.09,North,2,0.0,0.0,70,0.00,,,0.00,WUHU216WMR968SP,2013-02-04 16:23:00,
2013-02-04 08:28:00,40.5,32.0,30.09,North,2,0.0,0.0,69,0.00,,,0.00,WUHU216WMR968SP,2013-02-04 16:28:00,
2013-02-04 08:33:00,40.6,32.0,30.09,North,2,0.0,0.0,68,0.00,,,0.00,WUHU216WMR968SP,2013-02-04 16:33:00,
2013-02-04 08:38:00,40.6,30.6,30.09,North,2,0.0,0.0,67,0.00,,,0.00,WUHU216WMR968SP,2013-02-04 16:38:00,
2013-02-04 08:43:00,40.8,30.8,30.09,North,2,0.0,0.0,67,0.00,,,0.00,WUHU216WMR968SP,2013-02-04 16:43:00,
2013-02-04 08:48:00,41.0,29.8,30.09,North,2,0.0,0.0,64,0.00,,,0.00,WUHU216WMR968SP,2013-02-04 16:48:00,
2013-02-04 08:53:00,41.2,28.8,30.09,North,2,0.0,0.0,61,0.00,,,0.00,WUHU216WMR968SP,2013-02-04 16:53:00,
2013-02-04 08:58:00,41.5,28.7,30.09,North,2,0.0,0.0,60,0.00,,,0.00,WUHU216WMR968SP,2013-02-04 16:58:00,
2013-02-04 09:03:00,41.5,27.9,30.09,North,2,0.0,0.0,58,0.00,,,0.00,WUHU216WMR968SP,2013-02-04 17:03:00,
2013-02-04 09:08:00,41.7,27.2,30.09,North,2,0.0,0.0,56,0.00,,,0.00,WUHU216WMR968SP,2013-02-04 17:08:00,
2013-02-04 09:13:00,41.7,26.7,30.09,North,2,0.0,0.0,55,0.00,,,0.00,WUHU216WMR968SP,2013-02-04 17:13:00,
2013-02-04 09:18:00,41.9,26.5,30.06,North,2,0.0,0.0,54,0.00,,,0.00,WUHU216WMR968SP,2013-02-04 17:18:00,
2013-02-04 09:23:00,42.1,25.7,30.06,North,2,0.0,0.0,52,0.00,,,0.00,WUHU216WMR968SP,2013-02-04 17:23:00,
2013-02-04 09:28:00,42.3,25.4,30.06,North,2,0.0,0.0,51,0.00,,,0.00,WUHU216WMR968SP,2013-02-04 17:28:00,
2013-02-04 09:33:00,42.6,25.2,30.06,North,2,0.0,0.0,50,0.00,,,0.00,WUHU216WMR968SP,2013-02-04 17:33:00,
2013-02-04 09:38:00,42.8,24.9,30.06,North,2,0.0,0.0,49,0.00,,,0.00,WUHU216WMR968SP,2013-02-04 17:38:00,
2013-02-04 09:43:00,43.2,24.7,30.06,North,2,0.0,0.0,48,0.00,,,0.00,WUHU216WMR968SP,2013-02-04 17:43:00,
2013-02-04 09:48:00,43.3,22.7,30.06,North,2,0.0,0.0,44,0.00,,,0.00,WUHU216WMR968SP,2013-02-04 17:48:00,
2013-02-04 09:53:00,43.5,22.3,30.06,North,2,0.0,0.0,43,0.00,,,0.00,WUHU216WMR968SP,2013-02-04 17:53:00,
2013-02-04 09:58:00,43.5,21.7,30.06,North,2,0.0,0.0,42,0.00,,,0.00,WUHU216WMR968SP,2013-02-04 17:58:00,
2013-02-04 10:03:00,43.7,21.3,30.06,North,2,0.0,0.0,41,0.00,,,0.00,WUHU216WMR968SP,2013-02-04 18:03:00,
2013-02-04 10:08:00,43.9,21.5,30.06,North,2,0.0,0.0,41,0.00,,,0.00,WUHU216WMR968SP,2013-02-04 18:08:00,
2013-02-04 10:13:00,44.1,21.1,30.06,North,2,0.0,0.0,40,0.00,,,0.00,WUHU216WMR968SP,2013-02-04 18:13:00,
2013-02-04 10:18:00,44.6,21.6,30.06,North,2,0.0,0.0,40,0.00,,,0.00,WUHU216WMR968SP,2013-02-04 18:18:00,
2013-02-04 10:23:00,45.0,21.3,30.06,North,2,0.0,0.0,39,0.00,,,0.00,WUHU216WMR968SP,2013-02-04 18:23:00,
2013-02-04 10:28:00,45.5,21.8,30.06,North,2,0.0,0.0,39,0.00,,,0.00,WUHU216WMR968SP,2013-02-04 18:28:00,
2013-02-04 10:33:00,46.0,22.2,30.06,North,5,0.0,3.1,39,0.00,,,0.00,WUHU216WMR968SP,2013-02-04 18:33:00,
2013-02-04 10:38:00,46.4,21.3,30.06,ESE,107,0.0,3.1,37,0.00,,,0.00,WUHU216WMR968SP,2013-02-04 18:38:00,
2013-02-04 10:43:00,46.6,21.5,30.06,ESE,108,2.2,3.1,37,0.00,,,0.00,WUHU216WMR968SP,2013-02-04 18:43:00,
2013-02-04 10:48:00,46.8,21.0,30.03,NE,53,0.0,3.1,36,0.00,,,0.00,WUHU216WMR968SP,2013-02-04 18:48:00,
2013-02-04 10:53:00,46.8,19.7,30.03,East,90,0.0,4.0,34,0.00,,,0.00,WUHU216WMR968SP,2013-02-04 18:53:00,
2013-02-04 10:58:00,46.9,19.7,30.03,ESE,113,0.0,4.0,34,0.00,,,0.00,WUHU216WMR968SP,2013-02-04 18:58:00,
2013-02-04 11:03:00,47.3,20.8,30.06,ESE,113,0.0,0.0,35,0.00,,,0.00,WUHU216WMR968SP,2013-02-04 19:03:00,
2013-02-04 11:08:00,47.5,21.0,30.06,ESE,119,0.0,2.7,35,0.00,,,0.00,WUHU216WMR968SP,2013-02-04 19:08:00,
2013-02-04 11:13:00,47.8,20.5,30.06,ENE,75,0.0,3.1,34,0.00,,,0.00,WUHU216WMR968SP,2013-02-04 19:13:00,
2013-02-04 11:18:00,48.4,20.4,30.06,ESE,103,0.0,3.1,33,0.00,,,0.00,WUHU216WMR968SP,2013-02-04 19:18:00,
2013-02-04 11:23:00,48.7,19.9,30.06,East,87,0.0,3.1,32,0.00,,,0.00,WUHU216WMR968SP,2013-02-04 19:23:00,
2013-02-04 11:28:00,48.9,19.3,30.06,East,88,0.0,3.1,31,0.00,,,0.00,WUHU216WMR968SP,2013-02-04 19:28:00,
2013-02-04 11:33:00,48.7,19.2,30.03,East,88,0.0,3.1,31,0.00,,,0.00,WUHU216WMR968SP,2013-02-04 19:33:00,
2013-02-04 11:38:00,49.1,19.5,30.03,East,87,0.0,0.0,31,0.00,,,0.00,WUHU216WMR968SP,2013-02-04 19:38:00,
2013-02-04 11:43:00,49.3,19.7,30.03,East,89,0.0,3.1,31,0.00,,,0.00,WUHU216WMR968SP,2013-02-04 19:43:00,
2013-02-04 11:48:00,49.5,19.9,30.03,East,89,0.0,3.1,31,0.00,,,0.00,WUHU216WMR968SP,2013-02-04 19:48:00,
2013-02-04 11:53:00,49.6,20.0,30.03,East,90,0.0,0.0,31,0.00,,,0.00,WUHU216WMR968SP,2013-02-04 19:53:00,
2013-02-04 11:58:00,49.6,19.2,30.03,East,90,0.0,0.0,30,0.00,,,0.00,WUHU216WMR968SP,2013-02-04 19:58:00,
2013-02-04 12:03:00,49.6,18.4,30.00,East,89,0.0,0.0,29,0.00,,,0.00,WUHU216WMR968SP,2013-02-04 20:03:00,
2013-02-04 12:08:00,49.6,19.2,30.00,East,89,0.0,0.0,30,0.00,,,0.00,WUHU216WMR968SP,2013-02-04 20:08:00,
2013-02-04 12:13:00,49.6,19.2,30.00,East,89,0.0,0.0,30,0.00,,,0.00,WUHU216WMR968SP,2013-02-04 20:13:00,
2013-02-04 12:18:00,50.0,18.8,30.00,East,90,0.0,0.0,29,0.00,,,0.00,WUHU216WMR968SP,2013-02-04 20:18:00,
2013-02-04 12:23:00,50.4,19.1,30.00,East,90,0.0,0.0,29,0.00,,,0.00,WUHU216WMR968SP,2013-02-04 20:23:00,
2013-02-04 12:28:00,50.5,18.4,30.00,South,183,0.0,0.0,28,0.00,,,0.00,WUHU216WMR968SP,2013-02-04 20:28:00,
2013-02-04 12:33:00,50.7,18.6,30.00,South,181,0.0,0.0,28,0.00,,,0.00,WUHU216WMR968SP,2013-02-04 20:33:00,
2013-02-04 12:38:00,51.1,18.9,30.00,South,185,0.0,0.0,28,0.00,,,0.00,WUHU216WMR968SP,2013-02-04 20:38:00,
2013-02-04 12:43:00,51.3,19.1,30.00,ESE,122,0.0,3.1,28,0.00,,,0.00,WUHU216WMR968SP,2013-02-04 20:43:00,
2013-02-04 12:48:00,51.6,18.5,30.00,SW,217,2.2,3.1,27,0.00,,,0.00,WUHU216WMR968SP,2013-02-04 20:48:00,
2013-02-04 12:53:00,51.6,18.5,30.00,SW,218,2.2,3.6,27,0.00,,,0.00,WUHU216WMR968SP,2013-02-04 20:53:00,
2013-02-04 12:58:00,51.8,18.7,30.00,SW,218,2.7,3.6,27,0.00,,,0.00,WUHU216WMR968SP,2013-02-04 20:58:00,
2013-02-04 13:03:00,52.0,18.8,30.00,SW,226,0.0,3.6,27,0.00,,,0.00,WUHU216WMR968SP,2013-02-04 21:03:00,
2013-02-04 13:08:00,52.2,19.0,30.00,NNW,345,3.1,5.8,27,0.00,,,0.00,WUHU216WMR968SP,2013-02-04 21:08:00,
2013-02-04 13:13:00,52.2,19.0,30.00,West,280,3.1,5.8,27,0.00,,,0.00,WUHU216WMR968SP,2013-02-04 21:13:00,
2013-02-04 13:18:00,52.0,18.8,29.97,West,261,2.2,4.9,27,0.00,,,0.00,WUHU216WMR968SP,2013-02-04 21:18:00,
2013-02-04 13:23:00,52.2,19.0,29.97,NW,305,2.2,4.9,27,0.00,,,0.00,WUHU216WMR968SP,2013-02-04 21:23:00,
2013-02-04 13:28:00,52.5,20.1,29.97,WNW,287,2.7,4.5,28,0.00,,,0.00,WUHU216WMR968SP,2013-02-04 21:28:00,
2013-02-04 13:33:00,52.5,20.1,29.97,NW,313,2.2,4.5,28,0.00,,,0.00,WUHU216WMR968SP,2013-02-04 21:33:00,
2013-02-04 13:38:00,52.5,20.1,29.97,WSW,254,2.7,5.4,28,0.00,,,0.00,WUHU216WMR968SP,2013-02-04 21:38:00,
2013-02-04 13:43:00,52.5,20.9,29.97,North,350,0.0,5.4,29,0.00,,,0.00,WUHU216WMR968SP,2013-02-04 21:43:00,
2013-02-04 13:48:00,52.5,20.1,29.97,WNW,283,3.1,4.9,28,0.00,,,0.00,WUHU216WMR968SP,2013-02-04 21:48:00,
2013-02-04 13:53:00,52.3,20.8,29.97,SW,231,2.7,4.9,29,0.00,,,0.00,WUHU216WMR968SP,2013-02-04 21:53:00,
2013-02-04 13:58:00,52.3,20.8,29.97,SW,233,2.7,3.6,29,0.00,,,0.00,WUHU216WMR968SP,2013-02-04 21:58:00,
2013-02-04 14:03:00,52.2,20.7,29.97,SW,232,0.0,3.6,29,0.00,,,0.00,WUHU216WMR968SP,2013-02-04 22:03:00,
2013-02-04 14:08:00,52.0,20.5,29.97,SW,218,2.2,3.6,29,0.00,,,0.00,WUHU216WMR968SP,2013-02-04 22:08:00,
2013-02-04 14:13:00,51.6,20.9,29.97,SW,215,0.0,4.0,30,0.00,,,0.00,WUHU216WMR968SP,2013-02-04 22:13:00,
2013-02-04 14:18:00,51.8,21.1,29.97,SW,220,3.1,4.0,30,0.00,,,0.00,WUHU216WMR968SP,2013-02-04 22:18:00,
2013-02-04 14:23:00,51.8,21.1,29.97,SW,222,2.7,4.0,30,0.00,,,0.00,WUHU216WMR968SP,2013-02-04 22:23:00,
2013-02-04 14:28:00,52.0,21.3,29.97,SW,226,2.2,4.0,30,0.00,,,0.00,WUHU216WMR968SP,2013-02-04 22:28:00,
2013-02-04 14:33:00,51.8,21.9,29.97,SW,225,2.7,3.6,31,0.00,,,0.00,WUHU216WMR968SP,2013-02-04 22:33:00,
2013-02-04 14:38:00,51.6,21.7,29.97,SW,225,0.0,3.6,31,0.00,,,0.00,WUHU216WMR968SP,2013-02-04 22:38:00,
2013-02-04 14:43:00,51.6,21.7,29.97,SW,225,0.0,3.1,31,0.00,,,0.00,WUHU216WMR968SP,2013-02-04 22:43:00,
2013-02-04 14:48:00,51.6,21.7,29.97,SW,225,2.7,4.0,31,0.00,,,0.00,WUHU216WMR968SP,2013-02-04 22:48:00,
2013-02-04 14:53:00,51.6,22.5,29.97,SW,224,2.2,4.0,32,0.00,,,0.00,WUHU216WMR968SP,2013-02-04 22:53:00,
2013-02-04 14:58:00,51.8,21.9,29.97,NW,307,2.2,4.0,31,0.00,,,0.00,WUHU216WMR968SP,2013-02-04 22:58:00,
2013-02-04 15:03:00,51.8,21.9,29.94,WSW,240,0.0,4.0,31,0.00,,,0.00,WUHU216WMR968SP,2013-02-04 23:03:00,
2013-02-04 15:08:00,51.6,21.7,29.94,WSW,240,0.0,4.0,31,0.00,,,0.00,WUHU216WMR968SP,2013-02-04 23:08:00,
2013-02-04 15:13:00,51.6,21.7,29.94,West,271,0.0,4.0,31,0.00,,,0.00,WUHU216WMR968SP,2013-02-04 23:13:00,
2013-02-04 15:18:00,51.6,22.5,29.94,West,268,0.0,3.6,32,0.00,,,0.00,WUHU216WMR968SP,2013-02-04 23:18:00,
2013-02-04 15:23:00,51.6,21.7,29.94,West,268,0.0,0.0,31,0.00,,,0.00,WUHU216WMR968SP,2013-02-04 23:23:00,
2013-02-04 15:28:00,51.6,22.5,29.94,West,268,0.0,0.0,32,0.00,,,0.00,WUHU216WMR968SP,2013-02-04 23:28:00,
2013-02-04 15:33:00,51.4,22.3,29.97,West,268,2.2,3.1,32,0.00,,,0.00,WUHU216WMR968SP,2013-02-04 23:33:00,
2013-02-04 15:38:00,51.6,22.5,29.97,West,273,2.2,3.1,32,0.00,,,0.00,WUHU216WMR968SP,2013-02-04 23:38:00,
2013-02-04 15:43:00,51.6,22.5,29.97,West,272,0.0,3.1,32,0.00,,,0.00,WUHU216WMR968SP,2013-02-04 23:43:00,
2013-02-04 15:48:00,51.6,22.5,29.94,West,278,0.0,4.0,32,0.00,,,0.00,WUHU216WMR968SP,2013-02-04 23:48:00,
2013-02-04 15:53:00,51.6,22.5,29.94,WNW,283,2.2,4.0,32,0.00,,,0.00,WUHU216WMR968SP,2013-02-04 23:53:00,
2013-02-04 15:58:00,51.4,23.0,29.94,West,278,2.7,4.0,33,0.00,,,0.00,WUHU216WMR968SP,2013-02-04 23:58:00,
2013-02-04 16:03:00,51.4,23.0,29.94,WNW,287,2.7,4.0,33,0.00,,,0.00,WUHU216WMR968SP,2013-02-05 00:03:00,
2013-02-04 16:09:00,51.1,22.7,29.94,WNW,288,0.0,3.6,33,0.00,,,0.00,WUHU216WMR968SP,2013-02-05 00:09:00,
2013-02-04 16:13:00,50.9,23.3,29.94,WNW,287,0.0,2.7,34,0.00,,,0.00,WUHU216WMR968SP,2013-02-05 00:13:00,
2013-02-04 16:19:00,50.9,23.3,29.94,WNW,286,0.0,4.0,34,0.00,,,0.00,WUHU216WMR968SP,2013-02-05 00:19:00,
2013-02-04 16:23:00,50.5,23.6,29.94,WSW,239,2.2,4.0,35,0.00,,,0.00,WUHU216WMR968SP,2013-02-05 00:23:00,
2013-02-04 16:28:00,50.5,23.6,29.94,West,265,2.7,4.0,35,0.00,,,0.00,WUHU216WMR968SP,2013-02-05 00:28:00,
2013-02-04 16:33:00,50.5,24.3,29.94,WSW,256,2.2,4.0,36,0.00,,,0.00,WUHU216WMR968SP,2013-02-05 00:33:00,
2013-02-04 16:38:00,50.5,24.3,29.94,WSW,256,2.2,4.0,36,0.00,,,0.00,WUHU216WMR968SP,2013-02-05 00:38:00,
2013-02-04 16:43:00,50.4,24.2,29.94,WSW,256,0.0,3.1,36,0.00,,,0.00,WUHU216WMR968SP,2013-02-05 00:43:00,
2013-02-04 16:48:00,50.2,24.0,29.94,WSW,257,0.0,2.7,36,0.00,,,0.00,WUHU216WMR968SP,2013-02-05 00:48:00,
2013-02-04 16:53:00,49.8,24.3,29.94,WSW,256,0.0,0.0,37,0.00,,,0.00,WUHU216WMR968SP,2013-02-05 00:53:00,
2013-02-04 16:58:00,49.5,24.1,29.94,WSW,256,0.0,0.0,37,0.00,,,0.00,WUHU216WMR968SP,2013-02-05 00:58:00,
2013-02-04 17:04:00,49.1,24.4,29.94,WSW,256,0.0,0.0,38,0.00,,,0.00,WUHU216WMR968SP,2013-02-05 01:04:00,
2013-02-04 17:09:00,48.9,24.8,29.94,WSW,257,0.0,0.0,39,0.00,,,0.00,WUHU216WMR968SP,2013-02-05 01:09:00,
2013-02-04 17:14:00,48.7,24.6,29.94,WSW,253,0.0,0.0,39,0.00,,,0.00,WUHU216WMR968SP,2013-02-05 01:14:00,
2013-02-04 17:19:00,48.7,24.6,29.94,WSW,252,0.0,3.1,39,0.00,,,0.00,WUHU216WMR968SP,2013-02-05 01:19:00,
2013-02-04 17:24:00,48.4,24.4,29.94,WSW,252,0.0,3.1,39,0.00,,,0.00,WUHU216WMR968SP,2013-02-05 01:24:00,
2013-02-04 17:29:00,48.0,24.6,29.94,WSW,252,0.0,0.0,40,0.00,,,0.00,WUHU216WMR968SP,2013-02-05 01:29:00,
2013-02-04 17:34:00,47.8,24.4,29.94,WSW,252,0.0,0.0,40,0.00,,,0.00,WUHU216WMR968SP,2013-02-05 01:34:00,
2013-02-04 17:39:00,47.8,24.4,29.94,WSW,252,0.0,0.0,40,0.00,,,0.00,WUHU216WMR968SP,2013-02-05 01:39:00,
2013-02-04 17:44:00,47.7,24.4,29.94,WSW,252,0.0,0.0,40,0.00,,,0.00,WUHU216WMR968SP,2013-02-05 01:44:00,
2013-02-04 17:49:00,47.5,24.8,29.94,WSW,252,0.0,0.0,41,0.00,,,0.00,WUHU216WMR968SP,2013-02-05 01:49:00,
2013-02-04 17:54:00,47.3,24.6,29.94,WSW,252,0.0,0.0,41,0.00,,,0.00,WUHU216WMR968SP,2013-02-05 01:54:00,
2013-02-04 17:59:00,47.1,25.0,29.94,WSW,252,0.0,0.0,42,0.00,,,0.00,WUHU216WMR968SP,2013-02-05 01:59:00,
2013-02-04 18:04:00,46.9,24.8,29.94,WSW,252,0.0,0.0,42,0.00,,,0.00,WUHU216WMR968SP,2013-02-05 02:04:00,
2013-02-04 18:09:00,46.8,24.7,29.94,WSW,252,0.0,0.0,42,0.00,,,0.00,WUHU216WMR968SP,2013-02-05 02:09:00,
2013-02-04 18:14:00,46.6,24.6,29.94,WSW,252,0.0,0.0,42,0.00,,,0.00,WUHU216WMR968SP,2013-02-05 02:14:00,
2013-02-04 18:19:00,46.4,25.0,29.94,WSW,252,0.0,0.0,43,0.00,,,0.00,WUHU216WMR968SP,2013-02-05 02:19:00,
2013-02-04 18:24:00,46.0,25.2,29.94,WSW,252,0.0,0.0,44,0.00,,,0.00,WUHU216WMR968SP,2013-02-05 02:24:00,
2013-02-04 18:29:00,45.9,25.1,29.94,WSW,252,0.0,0.0,44,0.00,,,0.00,WUHU216WMR968SP,2013-02-05 02:29:00,
2013-02-04 18:34:00,45.5,25.3,29.94,WSW,252,0.0,0.0,45,0.00,,,0.00,WUHU216WMR968SP,2013-02-05 02:34:00,
2013-02-04 18:39:00,45.3,25.1,29.94,WSW,252,0.0,0.0,45,0.00,,,0.00,WUHU216WMR968SP,2013-02-05 02:39:00,
2013-02-04 18:44:00,45.1,24.9,29.94,WSW,252,0.0,0.0,45,0.00,,,0.00,WUHU216WMR968SP,2013-02-05 02:44:00,
2013-02-04 18:49:00,45.0,25.3,29.94,WSW,252,0.0,0.0,46,0.00,,,0.00,WUHU216WMR968SP,2013-02-05 02:49:00,
2013-02-04 18:54:00,44.8,25.2,29.94,WSW,252,0.0,0.0,46,0.00,,,0.00,WUHU216WMR968SP,2013-02-05 02:54:00,
2013-02-04 18:59:00,44.6,25.5,29.94,WSW,252,0.0,0.0,47,0.00,,,0.00,WUHU216WMR968SP,2013-02-05 02:59:00,
2013-02-04 19:04:00,44.4,25.9,29.94,WSW,252,0.0,0.0,48,0.00,,,0.00,WUHU216WMR968SP,2013-02-05 03:04:00,
2013-02-04 19:09:00,44.2,25.7,29.94,WSW,252,0.0,0.0,48,0.00,,,0.00,WUHU216WMR968SP,2013-02-05 03:09:00,
2013-02-04 19:14:00,44.1,25.6,29.94,WSW,252,0.0,0.0,48,0.00,,,0.00,WUHU216WMR968SP,2013-02-05 03:14:00,
2013-02-04 19:19:00,43.9,25.4,29.91,WSW,252,0.0,0.0,48,0.00,,,0.00,WUHU216WMR968SP,2013-02-05 03:19:00,
2013-02-04 19:24:00,43.7,25.7,29.91,WSW,252,0.0,0.0,49,0.00,,,0.00,WUHU216WMR968SP,2013-02-05 03:24:00,
2013-02-04 19:29:00,43.5,25.5,29.91,WSW,252,0.0,0.0,49,0.00,,,0.00,WUHU216WMR968SP,2013-02-05 03:29:00,
2013-02-04 19:34:00,43.5,26.0,29.91,WSW,252,0.0,0.0,50,0.00,,,0.00,WUHU216WMR968SP,2013-02-05 03:34:00,
2013-02-04 19:39:00,43.3,25.9,29.91,WSW,252,0.0,0.0,50,0.00,,,0.00,WUHU216WMR968SP,2013-02-05 03:39:00,
2013-02-04 19:44:00,43.3,25.9,29.91,WSW,252,0.0,0.0,50,0.00,,,0.00,WUHU216WMR968SP,2013-02-05 03:44:00,
2013-02-04 19:49:00,43.3,26.3,29.91,WSW,252,0.0,0.0,51,0.00,,,0.00,WUHU216WMR968SP,2013-02-05 03:49:00,
2013-02-04 19:54:00,43.2,26.3,29.91,WSW,252,0.0,0.0,51,0.00,,,0.00,WUHU216WMR968SP,2013-02-05 03:54:00,
2013-02-04 19:59:00,43.0,26.1,29.91,WSW,252,0.0,0.0,51,0.00,,,0.00,WUHU216WMR968SP,2013-02-05 03:59:00,
2013-02-04 20:04:00,43.0,26.6,29.91,WSW,252,0.0,0.0,52,0.00,,,0.00,WUHU216WMR968SP,2013-02-05 04:04:00,
2013-02-04 20:09:00,42.8,26.4,29.91,WSW,252,0.0,0.0,52,0.00,,,0.00,WUHU216WMR968SP,2013-02-05 04:09:00,
2013-02-04 20:14:00,42.8,26.4,29.91,WSW,252,0.0,0.0,52,0.00,,,0.00,WUHU216WMR968SP,2013-02-05 04:14:00,
2013-02-04 20:19:00,42.6,26.7,29.88,WSW,252,0.0,0.0,53,0.00,,,0.00,WUHU216WMR968SP,2013-02-05 04:19:00,
2013-02-04 20:24:00,42.6,27.1,29.88,WSW,252,0.0,0.0,54,0.00,,,0.00,WUHU216WMR968SP,2013-02-05 04:24:00,
2013-02-04 20:29:00,42.4,26.9,29.88,WSW,252,0.0,0.0,54,0.00,,,0.00,WUHU216WMR968SP,2013-02-05 04:29:00,
2013-02-04 20:34:00,42.4,26.9,29.88,WSW,252,0.0,0.0,54,0.00,,,0.00,WUHU216WMR968SP,2013-02-05 04:34:00,
2013-02-04 20:39:00,42.3,27.3,29.88,WSW,252,0.0,0.0,55,0.00,,,0.00,WUHU216WMR968SP,2013-02-05 04:39:00,
2013-02-04 20:44:00,42.3,27.3,29.88,WSW,252,0.0,0.0,55,0.00,,,0.00,WUHU216WMR968SP,2013-02-05 04:44:00,
2013-02-04 20:49:00,42.4,27.8,29.88,WSW,252,0.0,0.0,56,0.00,,,0.00,WUHU216WMR968SP,2013-02-05 04:49:00,
2013-02-04 20:54:00,42.4,28.3,29.88,WSW,252,0.0,0.0,57,0.00,,,0.00,WUHU216WMR968SP,2013-02-05 04:54:00,
2013-02-04 20:59:00,42.3,28.6,29.88,WSW,252,0.0,0.0,58,0.00,,,0.00,WUHU216WMR968SP,2013-02-05 04:59:00,
2013-02-04 21:00:00,42.3,28.6,29.88,WSW,252,0.0,0.0,58,0.00,,,0.00,WUHU216WMR968SP,2013-02-05 05:00:00,
2013-02-04 21:05:00,42.3,28.6,29.88,WSW,252,0.0,0.0,58,0.00,,,0.00,WUHU216WMR968SP,2013-02-05 05:05:00,
2013-02-04 21:10:00,42.3,29.0,29.88,WSW,252,0.0,0.0,59,0.00,,,0.00,WUHU216WMR968SP,2013-02-05 05:10:00,
2013-02-04 21:15:00,42.3,29.5,29.88,NNW,330,0.0,0.0,60,0.00,,,0.00,WUHU216WMR968SP,2013-02-05 05:15:00,
2013-02-04 21:20:00,42.6,30.6,29.88,WSW,255,3.6,4.0,62,0.00,,,0.00,WUHU216WMR968SP,2013-02-05 05:20:00,
2013-02-04 21:25:00,43.0,32.0,29.88,West,262,0.0,4.0,65,0.00,,,0.00,WUHU216WMR968SP,2013-02-05 05:25:00,
2013-02-04 21:30:00,43.0,33.8,29.91,SW,221,0.0,3.6,68,0.00,,,0.00,WUHU216WMR968SP,2013-02-05 05:30:00,
2013-02-04 21:35:00,43.0,32.0,29.91,SW,223,0.0,3.6,67,0.00,,,0.00,WUHU216WMR968SP,2013-02-05 05:35:00,
2013-02-04 21:40:00,43.0,32.0,29.91,SW,223,0.0,3.1,67,0.00,,,0.00,WUHU216WMR968SP,2013-02-05 05:40:00,
2013-02-04 21:45:00,43.2,32.0,29.91,SW,223,0.0,0.0,66,0.00,,,0.00,WUHU216WMR968SP,2013-02-05 05:45:00,
2013-02-04 21:50:00,43.2,32.0,29.91,North,6,0.0,3.1,66,0.00,,,0.00,WUHU216WMR968SP,2013-02-05 05:50:00,
2013-02-04 21:55:00,43.5,32.0,29.91,NNE,16,0.0,4.0,64,0.00,,,0.00,WUHU216WMR968SP,2013-02-05 05:55:00,
2013-02-04 22:00:00,43.5,31.4,29.91,NNE,16,0.0,4.0,62,0.00,,,0.00,WUHU216WMR968SP,2013-02-05 06:00:00,
2013-02-04 22:05:00,43.5,31.0,29.91,NNE,16,0.0,0.0,61,0.00,,,0.00,WUHU216WMR968SP,2013-02-05 06:05:00,
2013-02-04 22:10:00,43.5,30.6,29.91,NNE,16,0.0,0.0,60,0.00,,,0.00,WUHU216WMR968SP,2013-02-05 06:10:00,
2013-02-04 22:15:00,43.3,30.0,29.91,NNE,16,0.0,0.0,59,0.00,,,0.00,WUHU216WMR968SP,2013-02-05 06:15:00,
2013-02-04 22:20:00,43.3,29.6,29.91,NNE,16,0.0,0.0,58,0.00,,,0.00,WUHU216WMR968SP,2013-02-05 06:20:00,
2013-02-04 22:25:00,43.2,29.5,29.91,NNE,16,0.0,0.0,58,0.00,,,0.00,WUHU216WMR968SP,2013-02-05 06:25:00,
2013-02-04 22:30:00,43.0,28.8,29.91,NNE,16,0.0,0.0,57,0.00,,,0.00,WUHU216WMR968SP,2013-02-05 06:30:00,
2013-02-04 22:35:00,43.0,28.8,29.91,NNE,16,0.0,0.0,57,0.00,,,0.00,WUHU216WMR968SP,2013-02-05 06:35:00,
2013-02-04 22:40:00,42.8,28.7,29.91,NNE,16,0.0,0.0,57,0.00,,,0.00,WUHU216WMR968SP,2013-02-05 06:40:00,
2013-02-04 22:45:00,42.8,28.7,29.91,NNE,16,0.0,0.0,57,0.00,,,0.00,WUHU216WMR968SP,2013-02-05 06:45:00,
2013-02-04 22:50:00,42.8,28.7,29.91,NNE,16,0.0,0.0,57,0.00,,,0.00,WUHU216WMR968SP,2013-02-05 06:50:00,
2013-02-04 22:55:00,42.6,28.9,29.91,NNE,16,0.0,0.0,58,0.00,,,0.00,WUHU216WMR968SP,2013-02-05 06:55:00,
2013-02-04 23:00:00,42.6,29.3,29.91,NNE,16,0.0,0.0,59,0.00,,,0.00,WUHU216WMR968SP,2013-02-05 07:00:00,
2013-02-04 23:05:00,42.4,28.7,29.91,NNE,16,0.0,0.0,58,0.00,,,0.00,WUHU216WMR968SP,2013-02-05 07:05:00,
2013-02-04 23:10:00,42.3,28.6,29.91,NNE,16,0.0,0.0,58,0.00,,,0.00,WUHU216WMR968SP,2013-02-05 07:10:00,
2013-02-04 23:15:00,42.1,28.4,29.91,NNE,16,0.0,0.0,58,0.00,,,0.00,WUHU216WMR968SP,2013-02-05 07:15:00,
2013-02-04 23:20:00,41.9,28.2,29.91,NNE,16,0.0,0.0,58,0.00,,,0.00,WUHU216WMR968SP,2013-02-05 07:20:00,
2013-02-04 23:25:00,41.7,28.5,29.91,NNE,16,0.0,0.0,59,0.00,,,0.00,WUHU216WMR968SP,2013-02-05 07:25:00,
2013-02-04 23:30:00,41.7,28.9,29.94,NNE,16,0.0,0.0,60,0.00,,,0.00,WUHU216WMR968SP,2013-02-05 07:30:00,
2013-02-04 23:35:00,41.7,29.3,29.94,NNE,16,0.0,0.0,61,0.00,,,0.00,WUHU216WMR968SP,2013-02-05 07:35:00,
2013-02-04 23:40:00,41.7,29.7,29.94,NNE,16,0.0,0.0,62,0.00,,,0.00,WUHU216WMR968SP,2013-02-05 07:40:00,
2013-02-04 23:45:00,41.7,29.7,29.91,NNE,16,0.0,0.0,62,0.00,,,0.00,WUHU216WMR968SP,2013-02-05 07:45:00,
2013-02-04 23:50:00,41.7,30.1,29.91,NNE,16,0.0,0.0,63,0.00,,,0.00,WUHU216WMR968SP,2013-02-05 07:50:00,
2013-02-04 23:55:00,41.9,32.0,29.91,NNE,16,0.0,0.0,64,0.00,,,0.00,WUHU216WMR968SP,2013-02-05 07:55:00,